カタログに戻る

CZ-6A DEB

運用中PO
NORAD 60634·DEBRIS·🇨🇳 China

打ち上げ Aug 6, 2024 から Taiyuan Satellite Launch Center

Loading…

次のパス (今後24時間)

TLE

最新Source: Space-Track

元期: Sep 14, 2026, 06:24 UTC

1 60634U 24140AK  26257.26721194  .00006288  00000-0  47456-3 0  9997
2 60634  89.0575 261.8844 0126662 186.6843 173.2707 14.96011438113747

AllMySatでCZ-6A DEBをリアルタイム追跡

Download on the App Store